sat.trackr.live / text

‹ back to catalog

GALAXY 3C (G-3C)

NORAD 27445 · 2002-030A

PAYLOAD ACTIVE UNKNOWN

§ Identity

Operator
Country
US
Launch date
2002-06-15
Launch site
SEAL
Launch vehicle
Mass (kg)
RCS (m²)
33.50

Purposes: comms

External: N2YO · Heavens-Above · Gunter

§ Orbital elements

Epoch: 2026-09-19T14:53:29.698368Z

Period
1,436.08 min
Inclination
3.9787°
Eccentricity
0.0001635
Mean motion
1.00272619 rev/d
Perigee alt
35,779.5 km
Apogee alt
35,793.3 km
Semi-major
42,164.5 km
B*
0.0000e+0
RAAN
76.7820°
Arg perigee
42.0869°
Mean anomaly
8.1979°
Rev number
4,744

§ Raw data

GALAXY 3C (G-3C)1 27445U 02030A   26262.62048262 -.00000156  00000+0  00000+0 0  99962 27445   3.9787  76.7820 0001635  42.0869   8.1979  1.00272619 47443

JSON: /api/v1/satellites/27445 · /tle

For live sub-satellite position, see the globe view (requires WebGL).

§ Visibility from observer

Set your observer location to see the next 7 days of passes ≥ 10°. The values pass through the URL so the page stays shareable.

No JS? Fill the form by hand. The geolocation button needs JavaScript.